Hourly Data Report for June 27, 2017

BORDEN AWOS
ONTARIO

44°16'20.000" N
79°54'42.000" W
222.50 m
611B002
71534
YBN

Download Data

Hourly Data (June 2017)
Hourly Data Report for June 27, 2017
TIME
LST
Temp Definition
°C
Dew Point Definition
°C
Rel Hum Definition
%
Precip. Amount Definition
mm

Wind Dir Definition
10's deg

Wind Spd Definition
km/h
Visibility Definition
km
Stn Press Definition
kPa
Hmdx Definition


Wind Chill Definition


Weather Definition


00:00 10.7 9.6 93   22 4 14.5 98.65     LegendNANA
01:00 9.6 9.1 97     0 14.5 98.63     LegendNANA
02:00 7.6 7.5 99     0 14.5 98.59     LegendNANA
03:00 6.3 6.2 99     0 14.5 98.61     LegendNANA
04:00 5.7 5.7 100   19 4 14.5 98.61     LegendNANA
05:00 5.9 5.7 99     0 14.5 98.65     LegendNANA
06:00 10.4 9.8 96   24 6 14.5 98.67     LegendNANA
07:00 13.1 10.2 83   19 6 14.5 98.68     LegendNANA
08:00 14.7 10.9 78   14 6 14.5 98.70     LegendNANA
09:00 15.6 10.0 69   26 13 14.5 98.69     LegendNANA
10:00 16.3 9.9 66   27 11 14.5 98.67     LegendNANA
11:00
12:00 16.0 12.1 78   34 17 14.5 98.73     LegendNANA
13:00
14:00
15:00 19.3 10.7 58   29 17 14.5 98.75     LegendNANA
16:00 20.0 11.1 56   30 11 14.5 98.75     LegendNANA
17:00 18.4 10.7 61   34 9 14.5 98.79     LegendNANA
18:00 19.6 7.8 46   28 19 14.5 98.81     LegendNANA
19:00 17.7 7.4 51   28 13 14.5 98.85     LegendNANA
20:00 14.6 7.7 63   26 11 14.5 98.88     LegendNANA
21:00 12.3 8.9 80   25 4 14.5 98.94     LegendNANA
22:00 11.4 9.1 86   24 6 14.5 98.95     LegendNANA
23:00 11.0 9.2 89   23 9 14.5 98.99     LegendNANA

Notes on Data Quality.

Legend

  • E = Estimated
  • M = Missing
  • NA = Not Available*
  • [empty] = Indicates an unobserved value
Date modified: